Stations météo

Publicité
St-Etienne Boutheon, France (7475): Température de l'air & dewpoint: 17.02.2019 23:00:00 - 23.02.2019 23:00:00 (CET)St-Etienne Boutheon, France (7475): Température de l'air 5cm: 17.02.2019 23:00:00 - 23.02.2019 23:00:00 (CET)St-Etienne Boutheon, France (7475): Température de l'air -20cm & Température de l'air -100cm: 17.02.2019 23:00:00 - 23.02.2019 23:00:00 (CET)St-Etienne Boutheon, France (7475): Vitesse du vent & gusts: 17.02.2019 23:00:00 - 23.02.2019 23:00:00 (CET)St-Etienne Boutheon, France (7475): Direction du vent: 17.02.2019 23:00:00 - 23.02.2019 23:00:00 (CET)St-Etienne Boutheon, France (7475): reduced air pressure: 17.02.2019 23:00:00 - 23.02.2019 23:00:00 (CET)St-Etienne Boutheon, France (7475): visibility: 17.02.2019 23:00:00 - 23.02.2019 23:00:00 (CET)St-Etienne Boutheon, France (7475): Ensoleillement: 17.02.2019 23:00:00 - 23.02.2019 23:00:00 (CET)St-Etienne Boutheon, France (7475): Quantités de précipitations: 17.02.2019 23:00:00 - 23.02.2019 23:00:00 (CET)
Date & Time tt [°C] td [°C] tt 5cm [°C] tt -20cm [°C] tt -100cm [°C] ff [km/h] ff [knt] fx [km/h] fx [knt] dd ppp [hPa] vv [km] sd [min] rr [mm]
23.02.2019 23:00:00 1,2 -0,4 -3,2 7,5 7,1 4 2 7 4 SSW 1032,3 8 0 0,0
23.02.2019 22:00:00 3,1 1,3 -2,7 7,8 7,1 4 2 6 4 SSE 1031,8 9 0 0,0
23.02.2019 21:00:00 3,8 1,5 -0,4 8,0 7,1 5 3 8 4 SSE 1031,5 9 0 0,0
23.02.2019 20:00:00 5,7 1,8 0,4 8,1 7,1 2 1 7 4 SW 1030,9 11 0 0,0
23.02.2019 19:00:00 8,6 2,6 3,5 8,1 7,2 0 0 14 7 N 1030,3 14 0 0,0
23.02.2019 18:00:00 10,2 4,6 9,5 7,9 7,1 11 6 14 8 N 1029,8 10 55 0,0
23.02.2019 17:00:00 12,4 4,4 15,5 7,5 7,1 8 4 16 9 NW 1028,6 12 60 0,0
23.02.2019 16:00:00 13,0 5,6 18,3 7,1 7,1 4 2 15 8 NNW 1029,1 11 60 0,0
23.02.2019 15:00:00 11,9 5,1 17,7 6,6 7,1 7 4 16 8 NW 1029,3 10 60 0,0
23.02.2019 14:00:00 11,0 4,9 16,6 6,1 7,1 6 3 14 8 N 1029,6 10 60 0,0
23.02.2019 13:00:00 10,3 5,1 12,6 5,8 7,1 6 3 14 8 WNW 1030,1 8 46 0,0
23.02.2019 12:00:00 9,0 5,0 10,9 5,5 7,1 5 3 11 6 N 1031,1 6 22 0,0
23.02.2019 11:00:00 7,1 5,4 7,8 5,4 7,1 5 3 10 6 N 1031,5 6 0 0,0
23.02.2019 10:00:00 5,5 5,4 4,2 5,4 7,1 2 1 6 3 N 1031,7 4,0 0 0,0
23.02.2019 09:00:00 3,0 2,9 -1,2 5,5 7,1 4 2 5 3 NW 1032,0 2,6 0 0,0
23.02.2019 08:00:00 1,0 0,7 -1,5 5,7 7,1 2 1 8 4 ESE 1032,3 0,4 0 0,0
23.02.2019 07:00:00 1,3 1,0 -1,0 5,8 7,1 2 1 7 4 SE 1032,3 3,7 0 0,0
23.02.2019 06:00:00 -0,6 -0,9 -4,4 6,0 7,1 3 1 6 3 SSE 1032,5 0,7 0 0,0
23.02.2019 05:00:00 -0,7 -1,1 -5,0 6,2 7,1 2 1 8 4 SSE 1032,7 0,1 0 0,0
23.02.2019 04:00:00 0,5 -0,1 -4,5 6,4 7,1 4 2 6 4 SSE 1032,6 0,2 0 0,0
23.02.2019 03:00:00 4,2 3,9 -1,3 6,6 7,1 6 3 10 5 NW 1032,1 4,6 0 0,0
23.02.2019 02:00:00 3,2 2,5 -0,6 6,8 7,1 6 3 11 6 SSE 1032,8 3,9 0 0,0
23.02.2019 01:00:00 4,6 3,4 0,4 7,0 7,1 4 2 16 9 E 1032,7 7 0 0,0
23.02.2019 00:00:00 5,9 3,4 0,8 7,1 7,1 10 5 15 8 N 1032,6 13 0 0,0
22.02.2019 23:00:00 4,9 4,3 0,5 7,3 7,1 6 3 10 5 S 1032,8 11 0 0,0
22.02.2019 22:00:00 4,8 2,3 1,4 7,5 7,1 4 2 14 8 N 1032,7 9 0 0,0
22.02.2019 21:00:00 6,8 4,6 3,0 7,6 7,1 3 1 17 9 E 1032,3 17 0 0,0
22.02.2019 20:00:00 11,4 6,7 5,8 7,6 7,1 13 7 21 11 N 1031,3 30 0 0,0
22.02.2019 19:00:00 12,0 6,3 8,8 7,5 7,1 8 5 18 10 N 1031,1 19 0 0,0
22.02.2019 18:00:00 13,7 6,3 13,6 7,3 7,1 10 5 26 14 WNW 1030,7 19 56 0,0
22.02.2019 17:00:00 15,1 6,9 18,1 7,0 7,1 14 8 37 20 NW 1030,6 20 60 0,0
22.02.2019 16:00:00 15,1 6,4 18,7 6,6 7,1 22 12 36 19 NNW 1030,9 19 60 0,0
22.02.2019 15:00:00 15,9 6,9 20,6 6,0 7,0 20 11 34 19 N 1030,7 19 60 0,0
22.02.2019 14:00:00 14,6 5,7 19,2 5,6 7,0 14 8 31 17 N 1031,6 9 60 0,0
22.02.2019 13:00:00 12,4 5,1 15,8 5,1 7,0 14 8 23 13 N 1032,7 17 60 0,0
22.02.2019 12:00:00 10,6 4,3 15,2 4,8 7,1 10 5 20 11 NW 1033,8 14 60 0,0
22.02.2019 11:00:00 9,0 2,3 12,9 4,6 7,0 3 2 11 6 E 1034,2 13 60 0,0
22.02.2019 10:00:00 7,1 1,6 7,2 4,7 7,0 0 0 5 3 N 1034,9 12 60 0,0
22.02.2019 09:00:00 2,7 0,9 -4,2 4,8 7,0 2 1 5 3 E 1035,5 8 58 0,0
22.02.2019 08:00:00 -1,6 -2,6 -6,7 5,0 7,0 2 1 9 5 SSW 1035,9 6 3 0,0
22.02.2019 07:00:00 -2,8 -3,9 -6,8 5,3 7,0 0 0 4 2 N 1035,5 7 0 0,0
22.02.2019 06:00:00 -0,9 -1,5 -6,3 5,5 7,0 2 1 5 3 E 1034,9 6 0 0,0
22.02.2019 05:00:00 -1,0 -1,6 -6,4 5,7 7,0 0 0 5 3 N 1034,5 6 0 0,0
22.02.2019 04:00:00 -1,3 -2,6 -6,6 6,0 7,0 3 2 7 4 SSW 1034,7 8 0 0,0
22.02.2019 03:00:00 -0,1 -0,7 -6,0 6,2 7,0 3 1 6 3 ESE 1034,5 8 0 0,0
22.02.2019 02:00:00 -0,8 -2,4 -5,7 6,5 7,0 3 2 5 3 SSE 1034,9 7 0 0,0
22.02.2019 01:00:00 0,1 -2,0 -4,5 6,7 7,0 0 0 4 2 N 1034,6 11 0 0,0
22.02.2019 00:00:00 1,9 0,1 -3,8 7,0 7,0 0 0 7 4 N 1033,8 13 0 0,0
21.02.2019 23:00:00 1,9 -1,5 -3,1 7,2 7,0 4 2 9 5 SSE 1033,7 13 0 0,0
21.02.2019 22:00:00 3,1 0,5 -3,1 7,5 7,0 8 5 9 5 S 1033,1 15 0 0,0
21.02.2019 21:00:00 4,4 0,5 -1,0 7,7 7,0 4 2 7 4 NE 1032,1 17 0 0,0
21.02.2019 20:00:00 6,0 1,1 -0,7 7,7 7,0 4 2 8 4 SSW 1031,2 28 0 0,0
21.02.2019 19:00:00 10,2 0,5 1,7 7,7 7,0 3 2 6 3 SE 1030,0 24 0 0,0
21.02.2019 18:00:00 14,5 0,7 13,8 7,5 7,0 4 2 16 8 NNW 1028,8 20 55 0,0
21.02.2019 17:00:00 16,3 1,6 20,2 7,1 7,0 8 4 13 7 NNW 1028,1 41 60 0,0
21.02.2019 16:00:00 16,8 -1,8 23,0 6,6 7,0 6 3 16 9 N 1027,9 38 60 0,0
21.02.2019 15:00:00 16,5 1,7 22,8 6,0 7,0 6 4 13 7 NNW 1028,2 35 60 0,0
21.02.2019 14:00:00 15,4 2,2 20,5 5,4 7,0 5 3 11 6 NW 1028,3 19 60 0,0
21.02.2019 13:00:00 13,7 3,2 18,2 4,9 7,0 3 2 9 5 N 1029,1 19 60 0,0
21.02.2019 12:00:00 11,0 2,8 14,3 4,6 7,0 4 2 14 7 NNW 1029,9 17 60 0,0
21.02.2019 11:00:00 8,3 2,1 13,1 4,5 7,0 9 5 15 8 NW 1030,4 0,1 60 0,0
21.02.2019 10:00:00 6,5 1,8 6,9 4,6 7,0 2 1 6 3 NNW 1030,5 17 60 0,0
21.02.2019 09:00:00 1,3 -0,2 -4,0 4,7 7,0 2 1 7 4 NNE 1031,1 13 60 0,0
21.02.2019 08:00:00 -2,3 -4,0 -7,2 4,9 7,0 2 1 9 5 NNE 1031,5 15 2 0,0
21.02.2019 07:00:00 -2,3 -3,7 -7,4 5,1 7,0 3 2 6 4 SSE 1030,8 14 0 0,0
21.02.2019 06:00:00 -1,5 -2,8 -6,7 5,4 6,9 6 4 8 4 S 1030,5 14 0 0,0
21.02.2019 05:00:00 -1,1 -2,8 -5,6 5,6 7,0 4 2 5 3 S 1030,2 15 0 0,0
21.02.2019 04:00:00 -1,0 -2,1 -5,2 5,8 6,9 3 2 9 5 NE 1030,0 9 0 0,0
21.02.2019 03:00:00 0,1 -0,8 -4,3 6,0 6,9 2 1 11 6 S 1029,7 10 0 0,0
21.02.2019 02:00:00 -0,3 -1,6 -5,3 6,3 6,9 5 3 10 5 S 1029,6 10 0 0,0
21.02.2019 01:00:00 0,5 -0,6 -4,0 6,5 6,9 2 1 7 4 E 1029,3 7 0 0,0
21.02.2019 00:00:00 1,3 -0,6 -3,8 6,8 7,0 0 0 8 5 N 1028,5 10 0 0,0
20.02.2019 23:00:00 2,4 0,6 -4,0 7,0 6,9 3 2 6 3 SE 1028,1 12 0 0,0
20.02.2019 22:00:00 2,4 0,0 -2,4 7,2 6,9 3 1 5 3 SE 1028,0 15 0 0,0
20.02.2019 21:00:00 4,7 1,2 -0,8 7,4 6,9 0 0 5 3 N 1027,1 13 0 0,0
20.02.2019 20:00:00 6,9 2,6 0,5 7,5 6,9 0 0 8 4 N 1026,4 18 0 0,0
20.02.2019 19:00:00 7,6 0,8 1,8 7,4 6,9 8 4 12 6 SSE 1025,9 27 0 0,0
20.02.2019 18:00:00 12,2 2,3 8,9 7,2 6,9 8 4 11 6 S 1024,5 29 45 0,0
20.02.2019 17:00:00 15,5 2,6 19,3 6,8 6,9 3 1 10 5 NW 1023,5 27 60 0,0
20.02.2019 16:00:00 15,6 2,7 21,2 6,3 6,9 5 3 10 6 N 1023,5 29 60 0,0
20.02.2019 15:00:00 15,0 2,5 20,9 5,7 6,9 5 3 14 8 NNW 1023,6 18 60 0,0
20.02.2019 14:00:00 14,1 2,9 19,9 5,2 6,9 7 4 16 9 NNE 1023,9 20 60 0,0
20.02.2019 13:00:00 14,2 1,8 17,7 4,8 6,9 3 2 11 6 SE 1024,1 18 60 0,0
20.02.2019 12:00:00 11,9 2,3 14,6 4,5 6,9 5 3 12 7 S 1024,8 14 60 0,0
20.02.2019 11:00:00 9,0 1,6 11,4 4,4 6,9 7 4 13 7 S 1025,2 20 60 0,0
20.02.2019 10:00:00 6,5 1,6 5,0 4,4 6,9 8 4 14 7 SSE 1025,6 20 60 0,0
20.02.2019 09:00:00 2,6 0,5 -3,8 4,6 6,9 9 5 15 8 S 1025,8 18 49 0,0
20.02.2019 08:00:00 -1,3 -1,7 -6,2 4,8 6,9 8 4 13 7 S 1026,0 12 0 0,0
20.02.2019 07:00:00 -2,3 -4,0 -5,9 5,0 6,9 5 3 9 5 SSW 1025,8 10 0 0,0
20.02.2019 06:00:00 -1,3 -2,1 -5,0 5,1 6,9 0 0 10 5 N 1025,5 9 0 0,0
20.02.2019 05:00:00 0,0 -2,2 -4,3 5,4 6,9 5 3 12 7 S 1025,0 15 0 0,0
20.02.2019 04:00:00 1,1 0,4 -5,4 5,6 6,9 9 5 12 6 S 1024,8 14 0 0,0
20.02.2019 03:00:00 -1,5 -2,5 -6,0 5,9 6,9 8 4 11 6 S 1025,6 11 0 0,0
20.02.2019 02:00:00 -1,3 -2,6 -5,5 6,1 6,9 3 1 6 3 E 1025,5 8 0 0,0
20.02.2019 01:00:00 -0,2 -1,0 -4,2 6,4 6,9 4 2 11 6 NNE 1025,1 10 0 0,0
20.02.2019 00:00:00 -0,9 -2,6 -4,8 6,6 6,9 10 5 11 6 S 1025,0 10 0 0,0
19.02.2019 23:00:00 0,6 -0,4 -4,3 6,9 6,9 0 0 4 2 N 1024,7 11 0 0,0
19.02.2019 22:00:00 1,4 -0,7 -3,3 7,1 6,9 2 1 5 3 SE 1024,3 14 0 0,0
19.02.2019 21:00:00 3,0 0,6 -1,1 7,3 6,9 0 0 6 3 N 1023,9 16 0 0,0
19.02.2019 20:00:00 4,7 0,6 -0,4 7,4 6,9 4 2 9 5 SW 1023,4 19 0 0,0
19.02.2019 19:00:00 7,5 2,6 2,4 7,4 6,9 8 4 10 5 ESE 1022,4 24 0 0,0
19.02.2019 18:00:00 10,6 3,1 8,3 7,1 6,9 6 3 13 7 N 1021,5 38 46 0,0
19.02.2019 17:00:00 13,3 3,4 17,0 6,8 6,9 4 2 16 9 NNW 1020,9 43 60 0,0
19.02.2019 16:00:00 13,2 3,8 18,2 6,4 6,9 9 5 16 9 NNW 1021,1 39 60 0,0
19.02.2019 15:00:00 12,9 3,8 18,4 5,9 6,9 7 4 22 12 NW 1021,6 19 60 0,0
19.02.2019 14:00:00 12,6 3,8 17,2 5,4 6,9 9 5 18 10 NW 1022,2 20 60 0,0
19.02.2019 13:00:00 10,0 2,6 15,1 5,0 6,9 6 3 14 8 NW 1023,5 19 60 0,0
19.02.2019 12:00:00 8,8 1,9 13,2 4,6 6,9 5 3 14 8 WNW 1024,3 20 60 0,0
19.02.2019 11:00:00 7,8 1,8 12,1 4,5 6,9 5 3 11 6 WNW 1024,4 20 60 0,0
19.02.2019 10:00:00 6,7 1,2 8,2 4,6 6,9 4 2 10 5 SSW 1024,4 30 60 -
19.02.2019 09:00:00 4,5 0,8 0,8 4,7 6,9 4 2 13 7 SSW 1024,2 20 60 0,0
19.02.2019 08:00:00 2,1 -0,3 -1,6 4,8 6,9 11 6 15 8 S 1024,1 33 0 0,0
19.02.2019 07:00:00 2,5 0,2 -4,3 5,0 6,8 11 6 15 8 S 1023,4 34 0 0,0
19.02.2019 06:00:00 2,7 0,3 -2,7 5,1 6,8 8 4 13 7 S 1023,3 34 0 0,0
19.02.2019 05:00:00 3,2 0,4 0,0 5,3 6,8 9 5 14 8 SSW 1023,1 36 0 0,0
19.02.2019 04:00:00 2,5 0,9 -1,4 5,5 6,8 9 5 19 10 SSE 1023,0 33 0 0,0
19.02.2019 03:00:00 1,8 -0,5 -2,1 5,7 6,8 11 6 16 9 S 1023,3 33 0 0,0
19.02.2019 02:00:00 3,9 0,8 0,2 5,8 6,8 11 6 21 12 S 1023,1 39 0 0,0
19.02.2019 01:00:00 5,3 1,8 1,6 6,0 6,8 16 9 29 16 S 1023,0 44 0 0,0
19.02.2019 00:00:00 3,9 0,8 1,0 6,1 6,8 15 8 28 15 SSE 1023,1 40 0 0,0
18.02.2019 23:00:00 4,1 0,6 0,0 6,3 6,8 12 7 25 13 S 1023,2 47 0 0,0
18.02.2019 22:00:00 5,3 -0,1 0,5 6,5 6,8 10 5 18 10 S 1023,0 52 0 0,0
18.02.2019 21:00:00 5,3 1,0 2,0 6,6 6,8 12 6 22 12 S 1022,5 46 0 0,0
18.02.2019 20:00:00 6,7 2,0 3,4 6,7 6,8 16 8 25 14 S 1022,0 49 0 0,0
18.02.2019 19:00:00 6,4 1,5 3,8 6,7 6,8 15 8 26 14 S 1021,7 59 0 0,0
18.02.2019 18:00:00 11,2 1,7 10,1 6,5 6,8 19 10 34 19 SSW 1020,1 57 34 0,0
18.02.2019 17:00:00 12,5 2,1 14,4 6,2 6,8 16 9 45 24 SSW 1019,9 60 60 0,0
18.02.2019 16:00:00 12,6 1,9 14,9 5,9 6,8 25 13 50 27 SSW 1020,4 53 60 0,0
18.02.2019 15:00:00 12,5 0,6 15,3 5,5 6,8 28 15 49 27 SSW 1020,8 53 60 0,0
18.02.2019 14:00:00 13,4 1,4 16,5 5,1 6,8 23 12 41 22 SW 1020,8 20 60 0,0
18.02.2019 13:00:00 13,3 0,3 15,9 4,7 6,8 19 11 43 23 SW 1021,3 56 60 0,0
18.02.2019 12:00:00 12,4 1,4 14,1 4,5 6,8 21 11 36 19 SSW 1021,9 60 60 0,0
18.02.2019 11:00:00 10,9 1,7 12,2 4,3 6,8 22 12 38 21 SSW 1022,4 60 60 0,0
18.02.2019 10:00:00 9,1 1,0 10,4 4,4 6,8 18 10 29 16 S 1022,8 60 60 0,0
18.02.2019 09:00:00 6,9 1,4 -2,0 4,5 6,8 10 5 17 9 S 1023,4 53 57 0,0
18.02.2019 08:00:00 1,6 -1,5 -4,3 4,7 6,8 2 1 15 8 SSW 1023,8 50 0 0,0
18.02.2019 07:00:00 0,0 -2,5 -4,7 4,8 6,8 4 2 15 8 SSW 1023,9 57 0 0,0
18.02.2019 06:00:00 0,5 -3,2 -3,3 5,0 6,8 3 2 19 10 SW 1024,0 57 0 0,0
18.02.2019 05:00:00 5,8 -0,3 -2,6 5,1 6,8 10 6 21 11 SW 1023,1 60 0 0,0
18.02.2019 04:00:00 6,0 -0,3 1,4 5,3 6,8 6 4 19 10 SSW 1023,4 60 0 0,0
18.02.2019 03:00:00 6,0 -0,5 -0,1 5,5 6,8 12 6 19 11 WSW 1023,7 60 0 0,0
18.02.2019 02:00:00 7,1 -1,1 0,1 5,7 6,8 9 5 17 9 SSW 1023,7 60 0 0,0
18.02.2019 01:00:00 6,1 -0,6 -0,2 5,9 6,8 4 2 16 8 SSW 1024,0 60 0 0,0
18.02.2019 00:00:00 7,3 -2,2 -3,9 6,1 6,8 13 7 19 10 S 1023,8 60 0 0,0
17.02.2019 23:00:00 2,1 -4,0 -3,6 6,4 6,8 3 2 15 8 ESE 1025,0 60 0 0,0

tt = Température de l'air
td = dewpoint
tt 5cm = Température de l'air 5cm
tt -20cm = Température de l'air -20cm
tt -100cm = Température de l'air -100cm
ff = Vitesse du vent
fx = gusts
dd = Direction du vent
ppp = reduced air pressure
vv = visibility
sd = Ensoleillement
rr = Quantités de précipitations

stations d'obs. à proximité